[[{"header":{"parameterUnit":"m.s-1","parameterCategory":1,"la1":30.2991,"la2":30.254,"lo1":-89.0895,"lo2":-89.0444,"dy":0.0017,"dx":0.0017,"nx":28,"ny":28,"refTime":"2024-06-29T03:00:00:Z","depth":0,"parameterNumber":2,"parameterNumberName":"U-component_of_WINDS"},"data":[0,0,0,0,0,0,0,0,0,0,0,0,0,0,0,0,0,0,0,0,0,0,0,0,0,0,0,0,0,0,0,0,0,0,0,0,0,0,0,0,0,0,0,0,0,0,0,0,0,0,0,0,0,0,0,0,0,0,2.9604,2.9605,0,2.9748,2.975,2.9751,2.9732,2.973,2.9728,2.9725,2.9875,2.9881,2.9887,0,0,0,0,0,0,0,0,0,0,0,0,0,2.9313,2.9318,2.9604,2.9605,2.9607,2.9748,2.975,2.9752,2.9733,2.973,2.9727,2.9724,2.9873,2.988,2.9888,0,0,0,0,0,0,0,0,0,0,0,0,0,2.9446,2.932,2.9603,2.9615,2.9617,2.9747,2.975,2.9752,2.9733,2.973,2.9726,2.9723,2.9871,2.988,2.9889,3.0017,0,0,2.9917,2.9921,0,0,0,0,0,0,0,0,2.9439,2.9457,2.9611,2.9614,2.9617,2.9718,2.9702,2.9841,2.9734,2.9689,2.9725,2.9721,2.9826,2.9839,2.9874,3.0024,3.0031,2.9918,2.9924,2.9928,2.993,0,0,0,0,0,0,0,2.943,2.9451,2.9661,2.9614,2.9617,2.9613,2.9628,2.9728,2.9776,2.9693,2.9692,2.9709,2.9827,2.9865,2.9877,3.0033,2.9918,2.9926,2.9932,2.9935,3.0295,3.0299,0,0,0,0,0,0,2.9417,2.9443,2.9656,2.9665,2.9517,2.9621,2.9638,2.969,2.9775,2.9784,2.9712,2.9708,2.9851,2.9866,2.9882,3.0037,2.9928,2.9936,2.9942,3.0291,3.0296,3.03,0,0,0,0,0,0,2.9411,2.9436,2.965,2.9554,2.9581,2.963,2.9688,2.9694,2.9732,2.9789,2.9798,2.9742,2.9848,2.9869,2.9983,3.0042,2.994,2.9949,3.0286,3.0292,3.0298,3.0349,0,0,0,0,0,0,2.9403,2.9434,2.9483,2.9555,2.9586,2.9749,2.9692,2.97,2.9748,2.9744,2.9819,2.9829,2.9847,2.997,2.9993,3.0053,2.9956,3.0281,3.0289,3.0296,3.0342,3.0356,3.0367,0,0,0,0,0,2.9392,2.9493,2.9486,2.9512,2.9648,2.9752,2.977,2.9789,2.9753,2.9802,2.9839,2.9826,3.0032,2.9981,3.0007,3.0071,3.0277,3.0287,3.0295,3.0336,3.0353,3.0367,0,0,0,0,0,0,2.9428,2.9502,2.9496,2.9622,2.9681,2.9749,2.9812,2.9806,2.9877,2.987,2.9891,2.9909,3.0024,3.0059,3.0001,3.0199,3.015,3.0164,3.0172,3.0188,3.0201,3.019,2.9964,0,0,0,0,0,2.945,2.9528,2.9589,2.9695,2.9724,2.9763,2.9809,2.9819,2.9881,2.9906,2.9951,3.0012,3.009,3.0141,3.0217,3.0347,3.0363,3.0404,3.0416,3.0427,3.0439,3.0509,3.0528,3.0329,3.0329,3.0329,0,0,2.9497,2.9548,2.9596,2.9703,2.975,2.983,2.9785,2.9872,2.9931,2.9919,3.0029,3.0064,3.0134,3.0256,3.0313,3.0289,3.0497,3.0438,3.0446,3.0453,3.052,3.0539,3.0556,3.0335,3.0334,3.0333,0,0,2.9624,2.967,2.9763,2.981,2.9881,2.9906,2.9928,2.9997,3.0019,3.013,3.0122,3.0194,3.0329,3.0378,3.0421,3.0565,3.0556,3.0589,3.0655,3.0724,3.0739,3.0753,3.0804,3.0822,3.0601,3.0601,3.0602,0,2.9674,2.9794,2.9811,2.9899,2.9946,2.9938,3.0031,3.0077,3.0169,3.0202,3.0174,3.0342,3.0388,3.0522,3.0557,3.0592,3.0618,3.0581,3.0736,3.075,3.0763,3.0812,3.0831,3.0605,3.0605,3.0604,3.0604,0,2.9851,2.9935,3.0001,3.0089,3.0143,3.0234,3.0264,3.0318,3.0322,3.035,3.0462,3.0518,3.0603,3.0636,3.0642,3.077,3.0753,3.0731,3.0681,3.0785,3.0831,3.085,3.061,3.0609,3.0608,3.0607,0,0,3.0005,3.01,3.0124,3.0163,3.024,3.0305,3.0395,3.0477,3.0522,3.0586,3.0661,3.0775,3.0754,3.0803,3.0814,3.0874,3.0983,3.0844,3.0846,3.0867,3.1127,3.1143,3.1164,3.0978,3.0981,3.0984,3.1121,0,3.0139,3.0296,3.0314,3.0454,3.0531,3.0524,3.0602,3.0657,3.0686,3.0755,3.0787,3.0866,3.0833,3.0862,3.0922,3.0957,3.1036,3.0948,3.1048,3.1051,3.103,3.1188,3.1206,3.1332,3.1139,3.1142,3.1144,0,3.0316,3.0383,3.0531,3.0596,3.0629,3.0698,3.0775,3.0841,3.0904,3.092,3.0974,3.0977,3.1069,3.1016,3.1144,3.1083,3.1125,3.1149,3.1154,3.1164,3.1104,3.1202,3.1373,3.1392,3.1173,3.1171,3.1169,0,3.0412,3.054,3.0644,3.0678,3.0757,3.0806,3.0841,3.09,3.0948,3.1015,3.1047,3.1124,3.1167,3.1227,3.1251,3.121,3.1377,3.1326,3.1392,3.1392,3.1428,3.1425,3.1608,3.1456,3.1456,3.1455,3.1455,0,3.0559,3.065,3.0688,3.0752,3.0853,3.0873,3.0972,3.1005,3.1058,3.1128,3.1127,3.1194,3.1221,3.1292,3.1312,3.1413,3.1433,3.1449,3.1453,3.1448,3.1446,3.1476,3.1467,3.146,3.1459,3.1458,3.1457,0,3.0683,3.0713,3.0826,3.0891,3.0909,3.0981,3.1036,3.1098,3.1125,3.1214,3.1236,3.1279,3.1362,3.1392,3.1494,3.1506,3.1624,3.1621,3.1603,3.1603,3.1668,3.1661,3.1876,3.1904,3.1734,3.1736,3.1737,0,3.0775,3.0844,3.0916,3.0962,3.0999,3.1075,3.1123,3.1145,3.1196,3.1271,3.1324,3.1407,3.1474,3.1607,3.1647,3.1724,3.1723,3.1793,3.1735,3.1728,3.1723,3.1718,3.1725,3.1803,3.1805,3.1807,3.1808,0,3.0934,3.0945,3.1015,3.109,3.1148,3.1208,3.1267,3.1305,3.1335,3.1393,3.1477,3.1529,3.1631,3.1713,3.1792,3.1828,3.1823,3.1826,3.1845,3.1841,3.1827,3.1834,3.1631,3.1821,3.1819,3.1818,3.1818,3.1817,3.1045,3.1106,3.1165,3.1242,3.1288,3.1342,3.1403,3.1437,3.1508,3.1592,3.1601,3.1691,3.1751,3.1856,3.1896,3.1968,3.1949,3.1977,3.1984,3.199,3.1995,3.1816,3.1982,3.1982,3.1982,3.1981,3.1981,0,3.1203,3.1241,3.1312,3.1393,3.1454,3.1442,3.1506,3.1558,3.1637,3.1693,3.1759,3.1855,3.1934,3.198,3.2058,3.2107,3.2106,3.2126,3.2123,3.2131,3.2008,3.1983,3.2125,3.2125,3.2125,3.2125,3.2125,3.2125,3.1293,3.1394,3.1412,3.1536,3.1573,3.1661,3.1698,3.1748,3.1792,3.1899,3.1964,3.1993,3.2045,3.2127,3.2199,3.221,3.2239,3.2261,3.2271,3.2155,3.214,3.2126,3.2102,3.2268,3.2268,3.2388,3.2389,3.239]},{"header":{"parameterUnit":"m.s-1","parameterCategory":1,"la1":30.2991,"la2":30.254,"lo1":-89.0895,"lo2":-89.0444,"dy":0.0017,"dx":0.0017,"nx":28,"ny":28,"refTime":"2024-06-29T03:00:00:Z","depth":0,"parameterNumber":3,"parameterNumberName":"V-component_of_WINDS"},"data":[0,0,0,0,0,0,0,0,0,0,0,0,0,0,0,0,0,0,0,0,0,0,0,0,0,0,0,0,0,0,0,0,0,0,0,0,0,0,0,0,0,0,0,0,0,0,0,0,0,0,0,0,0,0,0,0,0,0,0.5977,0.5977,0,0.599,0.599,0.599,0.5949,0.5947,0.5946,0.5945,0.596,0.5962,0.5963,0,0,0,0,0,0,0,0,0,0,0,0,0,0.5917,0.5918,0.5977,0.5977,0.5977,0.599,0.599,0.599,0.5949,0.5947,0.5946,0.5944,0.5959,0.5961,0.5963,0,0,0,0,0,0,0,0,0,0,0,0,0,0.5938,0.5918,0.5977,0.5958,0.5956,0.599,0.599,0.599,0.5949,0.5947,0.5945,0.5944,0.5959,0.5961,0.5963,0.6016,0,0,0.5971,0.5972,0,0,0,0,0,0,0,0,0.5937,0.594,0.596,0.5959,0.5958,0.5966,0.5974,0.5999,0.595,0.5952,0.5945,0.5943,0.5964,0.5965,0.5972,0.6017,0.6018,0.5971,0.5972,0.5973,0.5974,0,0,0,0,0,0,0,0.5935,0.5939,0.5982,0.5961,0.5959,0.5949,0.595,0.5979,0.5968,0.5952,0.5949,0.5951,0.5962,0.597,0.5972,0.6018,0.5971,0.5973,0.5974,0.5975,0.6106,0.6108,0,0,0,0,0,0,0.5936,0.5938,0.5981,0.5982,0.5942,0.5952,0.5953,0.5965,0.5968,0.5966,0.5952,0.5949,0.5967,0.5969,0.5972,0.6035,0.5973,0.5976,0.5977,0.6104,0.6107,0.6109,0,0,0,0,0,0,0.5935,0.594,0.5981,0.5959,0.5964,0.5955,0.5969,0.5966,0.5974,0.5968,0.5966,0.5962,0.5965,0.5969,0.6005,0.6034,0.5977,0.5979,0.6102,0.6105,0.6108,0.6159,0,0,0,0,0,0,0.5933,0.594,0.596,0.596,0.5965,0.6014,0.5971,0.5968,0.5978,0.5973,0.5977,0.5976,0.5964,0.6002,0.6008,0.6037,0.5981,0.6099,0.6103,0.6107,0.6155,0.6163,0.6171,0,0,0,0,0,0.5931,0.5974,0.5961,0.5967,0.599,0.6015,0.6018,0.6004,0.598,0.6,0.5997,0.5975,0.603,0.6006,0.6012,0.6042,0.6097,0.6102,0.6107,0.6151,0.6162,0.6171,0,0,0,0,0,0,0.5978,0.5974,0.5959,0.6004,0.601,0.6008,0.6033,0.6016,0.6029,0.6025,0.6006,0.6008,0.6047,0.6048,0.6022,0.6093,0.606,0.6066,0.6092,0.6102,0.611,0.6109,0.5983,0,0,0,0,0,0.5994,0.6015,0.601,0.6049,0.6053,0.6043,0.6053,0.6041,0.6048,0.6051,0.605,0.6057,0.6075,0.6088,0.6105,0.6154,0.6155,0.6178,0.6186,0.6192,0.6198,0.6224,0.6235,0.6124,0.6124,0.6124,0,0,0.6026,0.6026,0.6041,0.6059,0.6062,0.6085,0.6045,0.6071,0.6087,0.6054,0.6089,0.6088,0.6095,0.6138,0.6157,0.614,0.6229,0.6198,0.6204,0.6206,0.623,0.6241,0.625,0.6127,0.6127,0.6126,0,0,0.6096,0.6098,0.6132,0.6136,0.6141,0.6134,0.6142,0.6143,0.6141,0.6175,0.6151,0.617,0.6203,0.6209,0.6216,0.6287,0.6269,0.6293,0.6336,0.6362,0.6371,0.6378,0.6404,0.6414,0.6299,0.6299,0.6299,0,0.6136,0.6169,0.6151,0.6178,0.6187,0.6157,0.619,0.6196,0.6207,0.6214,0.6194,0.6234,0.6237,0.6281,0.6298,0.6305,0.6314,0.6294,0.6371,0.6378,0.6385,0.641,0.6419,0.6302,0.6302,0.6301,0.6301,0,0.6217,0.624,0.6266,0.6277,0.6289,0.6319,0.6306,0.632,0.6307,0.6301,0.6336,0.6338,0.6355,0.6364,0.6351,0.6406,0.6395,0.6374,0.634,0.6399,0.6422,0.6431,0.6306,0.6305,0.6304,0.6304,0,0,0.6319,0.6319,0.6329,0.6334,0.6337,0.6355,0.6383,0.6399,0.6411,0.642,0.6444,0.6472,0.6451,0.646,0.6447,0.647,0.6527,0.6445,0.6445,0.6461,0.6587,0.6604,0.6615,0.6514,0.6515,0.6517,0.6587,0,0.6389,0.6438,0.6422,0.6472,0.6493,0.6464,0.6489,0.6494,0.649,0.6507,0.6502,0.6523,0.6494,0.6499,0.6519,0.6516,0.6552,0.651,0.6537,0.6538,0.6537,0.6627,0.6646,0.6712,0.6596,0.6597,0.6598,0,0.6477,0.6488,0.654,0.654,0.6548,0.6571,0.6584,0.66,0.6606,0.6601,0.661,0.6592,0.6621,0.6586,0.6625,0.6597,0.6606,0.6606,0.6608,0.6611,0.6572,0.6633,0.6732,0.6743,0.6612,0.6611,0.661,0,0.6547,0.6575,0.6609,0.6614,0.6615,0.6631,0.6632,0.6635,0.6646,0.6657,0.6663,0.6678,0.6686,0.6698,0.6686,0.6661,0.6727,0.6691,0.6724,0.6724,0.674,0.674,0.6843,0.6745,0.6745,0.6745,0.6744,0,0.6627,0.666,0.6641,0.6662,0.6698,0.668,0.6716,0.6714,0.6717,0.6737,0.6713,0.6733,0.6715,0.6733,0.6723,0.6757,0.6761,0.6758,0.6755,0.6761,0.6761,0.6768,0.6763,0.6747,0.6747,0.6746,0.6746,0,0.6712,0.67,0.6736,0.6733,0.6733,0.676,0.6757,0.6777,0.677,0.6797,0.6802,0.6792,0.6812,0.68,0.6821,0.6814,0.6858,0.6849,0.6857,0.6855,0.6889,0.6886,0.7001,0.7015,0.6907,0.6908,0.6909,0,0.6764,0.6789,0.6788,0.68,0.6802,0.6822,0.6832,0.6815,0.6826,0.6833,0.6852,0.687,0.6884,0.6917,0.6912,0.6928,0.6919,0.6958,0.6921,0.6926,0.692,0.6919,0.6922,0.6966,0.6967,0.6968,0.6969,0,0.6859,0.6852,0.6867,0.688,0.6893,0.6903,0.691,0.6922,0.6904,0.6918,0.6938,0.6949,0.6969,0.6988,0.7001,0.7002,0.6983,0.698,0.6989,0.6995,0.6999,0.6998,0.6878,0.6978,0.6977,0.6976,0.6976,0.6976,0.6929,0.695,0.6953,0.697,0.6974,0.6982,0.7,0.6995,0.7012,0.7027,0.7015,0.7039,0.7043,0.7059,0.7062,0.7081,0.7065,0.7078,0.7081,0.7085,0.709,0.6995,0.7083,0.7083,0.7083,0.7082,0.7082,0,0.7023,0.7023,0.704,0.7051,0.7065,0.7045,0.7052,0.7065,0.7086,0.7091,0.7105,0.7128,0.7145,0.7141,0.7156,0.7172,0.7164,0.7177,0.7176,0.7177,0.7102,0.7094,0.7183,0.7183,0.7183,0.7183,0.7183,0.7183,0.7074,0.7107,0.71,0.7135,0.7135,0.7158,0.7164,0.7171,0.7175,0.7201,0.7215,0.7212,0.7213,0.7229,0.7244,0.7242,0.7249,0.7266,0.7261,0.7192,0.7182,0.7173,0.7164,0.7267,0.7267,0.7334,0.7335,0.7335]}]]